Weather History for McCall, ID

Change the Weather History Date:

Saturday, May 18, 2013

  Actual Average Record
Temperature  
Mean Temperature 48 °F 47 °F  
Max Temperature 56 °F 60 °F 84 °F (2006)
Min Temperature 39 °F 34 °F 24 °F (2003)
Degree Days  
Heating Degree Days 17 18  
Month to date heating degree days 232 373  
Since 1 July heating degree days 8123 9008  
Cooling Degree Days 0 0  
Month to date cooling degree days 0 0  
Year to date cooling degree days 0 0  
Moisture  
Dew Point 38 °F    
Average Humidity 71    
Maximum Humidity 92    
Minimum Humidity 50    
Precipitation  
Precipitation 0.28 in 0.07 in 0.69 in (1989)
Month to date precipitation 0.74 1.25  
Year to date precipitation 8.36 8.84  
Sea Level Pressure  
Sea Level Pressure 30.01 in    
Wind  
Wind Speed 4 mph (NNW)    
Max Wind Speed 13 mph    
Max Gust Speed 17 mph    
Visibility 10 miles    
Events Rain    
T = Trace of Precipitation, MM = Missing Value Source: NWS Daily Summary

Daily Weather History Graph

Daily Weather History Graph

Search for Another Location

Airport:

Trip Planner

Search our weather history database for the weather conditions in past years. The results will help you decide how hot, cold, wet, or windy it might be!

Date:

Astronomy

May. 18, 2013 Rise Set
Actual Time 6:12 AM MDT 9:10 PM MDT
Civil Twilight 5:37 AM MDT 9:44 PM MDT
Nautical Twilight 4:53 AM MDT 10:29 PM MDT
Astronomical Twilight 4:01 AM MDT 11:22 PM MDT
Moon 2:00 PM MDT (5/18) 2:25 AM MDT (5/18)
Length of Visible Light 16h 07m
Length of Day
14h 58m
First Quarter, 56% of the Moon is Illuminated
May 18
First Quarter
May 24
Full
May 31
Last Quarter
Jun 8
New
Jun 16
First Quarter

Hourly Weather History & Observations

Time (MDT) Temp. Windchill Dew Point Humidity Pressure Visibility Wind Dir Wind Speed Gust Speed Precip Events Conditions
12:02 AM 44.6 °F - 42.8 °F 93% 29.97 in 10.0 mi Calm Calm - N/A   Overcast
12:20 AM 44.6 °F - 42.8 °F 93% 29.97 in 10.0 mi Calm Calm - N/A   Overcast
12:30 AM 44.6 °F - 42.8 °F 93% 29.97 in 10.0 mi Calm Calm - N/A   Overcast
12:51 AM 45.0 °F - 42.1 °F 90% 29.94 in 10.0 mi Calm Calm - N/A   Overcast
1:07 AM 44.6 °F 43.1 °F 42.8 °F 93% 29.97 in 10.0 mi NNE 3.5 mph - N/A   Overcast
1:51 AM 44.1 °F - 42.1 °F 93% 29.94 in 10.0 mi Calm Calm - N/A   Overcast
2:24 AM 44.6 °F - 42.8 °F 93% 29.97 in 10.0 mi Calm Calm - N/A   Overcast
2:51 AM 45.0 °F - 42.1 °F 90% 29.94 in 10.0 mi Calm Calm - N/A   Overcast
3:14 AM 44.6 °F - 41.0 °F 87% 29.97 in 10.0 mi Calm Calm - N/A   Overcast
3:51 AM 44.1 °F - 41.0 °F 89% 29.94 in 10.0 mi Calm Calm - N/A   Overcast
4:51 AM 42.1 °F 36.1 °F 37.0 °F 82% 29.95 in 10.0 mi WSW 10.4 mph - N/A   Overcast
4:57 AM 42.8 °F 39.3 °F 37.4 °F 81% 29.99 in 10.0 mi SSW 5.8 mph - 0.00 in Rain Light Rain
5:09 AM 41.0 °F 37.1 °F 37.4 °F 87% 29.99 in 6.0 mi South 5.8 mph - 0.02 in Rain Heavy Rain
5:45 AM 41.0 °F 38.0 °F 37.4 °F 87% 30.01 in 4.0 mi North 4.6 mph - 0.15 in Rain Rain
5:51 AM 39.9 °F 36.7 °F 37.0 °F 89% 29.99 in 4.0 mi NNE 4.6 mph - 0.19 in Rain Rain
6:19 AM 39.2 °F 35.0 °F 37.4 °F 93% 30.01 in 9.0 mi North 5.8 mph - 0.09 in Rain Light Rain
6:33 AM 39.2 °F - 37.4 °F 93% 30.02 in 10.0 mi Calm Calm - 0.09 in   Overcast
6:47 AM 39.2 °F - 37.4 °F 93% 30.02 in 10.0 mi Calm Calm - 0.09 in   Overcast
6:51 AM 39.9 °F 36.7 °F 36.0 °F 86% 30.01 in 10.0 mi ENE 4.6 mph - 0.09 in   Overcast
7:08 AM 39.2 °F - 35.6 °F 87% 30.02 in 10.0 mi Calm Calm - N/A   Overcast
7:21 AM 39.2 °F - 35.6 °F 87% 30.03 in 10.0 mi Calm Calm - N/A   Overcast
7:51 AM 39.9 °F - 37.0 °F 89% 30.03 in 10.0 mi Calm Calm - N/A   Overcast
8:51 AM 44.1 °F - 37.0 °F 76% 30.02 in 10.0 mi Calm Calm - N/A   Scattered Clouds
9:01 AM 42.8 °F 41.1 °F 37.4 °F 81% 30.04 in 10.0 mi WNW 3.5 mph - N/A   Mostly Cloudy
9:51 AM 44.1 °F - 37.0 °F 76% 30.02 in 10.0 mi Calm Calm - N/A   Mostly Cloudy
10:44 AM 46.4 °F 45.2 °F 37.4 °F 71% 30.04 in 10.0 mi NW 3.5 mph - N/A   Mostly Cloudy
10:51 AM 48.0 °F - 37.0 °F 66% 30.01 in 10.0 mi Calm Calm - N/A   Mostly Cloudy
11:04 AM 48.2 °F - 39.2 °F 71% 30.04 in 10.0 mi Variable 3.5 mph - N/A   Overcast
11:13 AM 48.2 °F - 39.2 °F 71% 30.04 in 10.0 mi NNW 5.8 mph - N/A   Overcast
11:51 AM 46.9 °F - 37.0 °F 68% 30.02 in 10.0 mi WSW 5.8 mph - N/A   Mostly Cloudy
12:51 PM 48.0 °F - 37.0 °F 66% 30.02 in 10.0 mi NNW 4.6 mph - 0.00 in Rain Light Rain
1:40 PM 48.2 °F - 37.4 °F 66% 30.04 in 10.0 mi Variable 6.9 mph - 0.00 in   Overcast
1:51 PM 48.0 °F - 37.9 °F 68% 30.02 in 10.0 mi North 8.1 mph - 0.00 in Rain Light Rain
1:58 PM 48.2 °F - 37.4 °F 66% 30.04 in 10.0 mi NNE 6.9 mph - 0.00 in Rain Light Rain
2:07 PM 48.2 °F - 39.2 °F 71% 30.04 in 10.0 mi East 5.8 mph - 0.00 in Rain Light Rain
2:51 PM 50.0 °F - 37.0 °F 61% 30.00 in 10.0 mi NW 6.9 mph - 0.00 in   Scattered Clouds
3:51 PM 51.1 °F - 37.0 °F 59% 30.00 in 10.0 mi Calm Calm - N/A   Mostly Cloudy
4:51 PM 54.0 °F - 35.1 °F 49% 30.00 in 10.0 mi West 6.9 mph 16.1 mph N/A   Mostly Cloudy
5:51 PM 54.0 °F - 35.1 °F 49% 30.01 in 10.0 mi NW 8.1 mph - N/A   Clear
6:51 PM 53.1 °F - 36.0 °F 52% 30.02 in 10.0 mi West 8.1 mph - N/A   Partly Cloudy
7:51 PM 51.1 °F - 36.0 °F 56% 30.04 in 10.0 mi West 4.6 mph - N/A   Clear
8:51 PM 48.0 °F - 36.0 °F 63% 30.05 in 10.0 mi NNW 9.2 mph - N/A   Partly Cloudy
9:51 PM 46.0 °F 42.5 °F 35.1 °F 66% 30.08 in 10.0 mi North 6.9 mph - N/A   Clear
10:51 PM 45.0 °F 43.5 °F 34.0 °F 65% 30.07 in 10.0 mi North 3.5 mph - N/A   Mostly Cloudy
11:51 PM 45.0 °F 41.8 °F 34.0 °F 65% 30.08 in 10.0 mi North 5.8 mph - N/A   Overcast